C/2018 X2 ( Fitzsimmons )

Japanese version
Home page
Updated on July 9, 2019

---------------------------------------------------------------------

* Profile

Discovery Date December 8, 2018
Magnitude 19.1 mag
Discoverer Alan Fitzsimmons (Asteroid Terrestrial-impact Last Alert System (ATLAS) search program)

* Pictures

* Orbital Elements

Epoch 2019 July 16.0 TT = JDT 2458680.5
T 2019 July 8.53933 TT                                  MPCW
q   2.1258896            (2000.0)            P               Q
z  +0.0065249      Peri.  162.05030     -0.80546953     -0.57850051
 +/-0.0000066      Node   340.83004     +0.48429116     -0.51737148
e   0.9861287      Incl.   23.06923     +0.34158588     -0.63060598
From 336 observations 2018 Dec. 8-2019 May 13, mean residual 0".5.

* Finding Charts

* Magnitudes Graph

        m1 = 11.0 + 5 log d + 10.0 log r

---------------------------------------------------------------------

The orbital elements are published on M.P.E.C. 2019-L24.
The charts are made with StellaNavigator Ver.10 (AstroArts).
The magnitudes graphs are made with Comet for Windows.

---------------------------------------------------------------------

Copyright(C) Seiichi Yoshida (comet@aerith.net). All rights reserved.